User: anonymous   Login
Location: Azul
(36.7830°S, 59.8500°W)
Time: 02:04:26
(UTC-03:00)
Language:

Max Valier Satellite - Orbit

View from above orbital plane
View from above orbital plane
View from above satellite
View from above satellite

Ground track
Ground track

The orbit data is extracted from the following two-line orbital elements,

1 42778U 17036P   21295.49881168  .00002144  00000-0  90838-4 0  9992
2 42778  97.2407 339.8826 0013477  89.2765 271.0017 15.24126350240639
Epoch (UTC): 22 October 2021 11:58:17
Eccentricity: 0.0013477
inclination: 97.2407°
perigee height: 484 km
apogee height: 502 km
right ascension of ascending node: 339.8826°
argument of perigee: 89.2765°
revolutions per day: 15.24126350
mean anomaly at epoch: 271.0017°
orbit number at epoch: 24063

The dashed part of the orbit path shows where the satellite is in the earth's shadow,  

DLR